Location: Kellogg
(38.0159°N, 90.0546°W)
Time: 14:41:03
(UTC+00:00)

Transit 2A - Pass Details

Date: 17 September 2024
Orbit: 590 x 960 km, 66.7° (Epoch: 07 October)

Event Time Altitude Azimuth Distance (km) Brightness Sun altitude
Rises 23:57:38 0° 208° (SSW) 3,355 9.7 0.7°
Reaches altitude 10° 23:59:59 10° 209° (SSW) 2,476 9.0 0.3°
Maximum altitude 00:05:48 84° 297° (WNW) 917 6.6 -0.9°
Drops below altitude 10° 00:12:06 10° 27° (NNE) 2,673 8.6 -2.1°
Sets 00:14:43 0° 28° (NNE) 3,639 9.3 -2.6°
